Chillicothe, MO

9:05 AM CST on November 14, 2019 (GMT -0600)
Chillicothe

Weather History for KCDJ - September, 2019

Change the Weather History Date:

Monday, September 9, 2019

  Actual Average (WUND) Record (WUND)
Temperature  
Mean Temperature 80 °F -  
Max Temperature 89 °F - - (-1)
Min Temperature 71 °F - - (-1)
Cooling Degree Days 15    
Growing Degree Days 30 (Base 50)    
Moisture  
Dew Point 71 °F    
Average Humidity 79    
Maximum Humidity 96    
Minimum Humidity 57    
Precipitation  
Precipitation 0.00 in - - ()
Sea Level Pressure  
Sea Level Pressure 29.95 in    
Wind  
Wind Speed 5 mph (SSE)    
Max Wind Speed 10 mph    
Max Gust Speed 18 mph    
Averages and records for this station are not official NWS values.
T = Trace of Precipitation, MM = Missing Value Source: NWS Daily Summary

Daily Weather History Graph

Daily Weather History Graph

Search for Another Location

Airport or City:

Astronomy

Sep. 09, 2019 Rise Set
Actual Time 6:49 AM CDT 7:33 PM CDT
Civil Twilight 6:22 AM CDT 8:00 PM CDT
Nautical Twilight 5:49 AM CDT 8:32 PM CDT
Astronomical Twilight 5:16 AM CDT 9:05 PM CDT
Moon 5:28 PM CDT (9/9) 2:21 AM CDT (9/9)
Length of Visible Light 13h 38m
Length of Day
12h 43m
Waxing Gibbous, 83% of the Moon is Illuminated
Sep 9
Waxing Gibbous
Sep 13
Full
Sep 21
Last Quarter
Sep 28
New
Oct 5
First Quarter

Hourly Weather History & Observations

Time (CDT) Temp. Heat Index Dew Point Humidity Pressure Visibility Wind Dir Wind Speed Gust Speed Precip Events Conditions
12:52 AM 71.1 °F - 69.1 °F 93% 29.99 in - ESE 4.6 mph - N/A   Unknown
1:52 AM 71.1 °F - 70.0 °F 96% 29.99 in - Variable 4.6 mph - N/A   Unknown
2:52 AM 71.1 °F - 70.0 °F 96% 29.97 in - ESE 5.8 mph - N/A   Unknown
3:52 AM 71.1 °F - 70.0 °F 96% 29.96 in - SE 6.9 mph - N/A   Unknown
4:52 AM 71.1 °F - 70.0 °F 96% 29.96 in - ESE 5.8 mph - N/A   Unknown
5:52 AM 71.1 °F - 70.0 °F 96% 29.97 in - SE 5.8 mph - N/A   Unknown
6:52 AM 71.1 °F - 70.0 °F 96% 29.99 in - SE 3.5 mph - N/A   Unknown
7:52 AM 72.0 °F - 70.0 °F 93% 30.00 in - Variable 3.5 mph - N/A   Unknown
8:52 AM 75.0 °F - 71.1 °F 87% 29.99 in - SSE 5.8 mph - N/A   Unknown
9:52 AM 78.1 °F - 72.0 °F 81% 29.98 in - SSE 5.8 mph - N/A   Unknown
10:52 AM 81.0 °F 85.2 °F 72.0 °F 74% 29.97 in - SSE 4.6 mph - N/A   Unknown
12:52 PM 87.1 °F 94.5 °F 73.0 °F 63% 29.95 in - South 10.4 mph 18.4 mph N/A   Unknown
1:52 PM 88.0 °F 95.6 °F 73.0 °F 61% 29.94 in - South 6.9 mph - N/A   Unknown
2:52 PM 89.1 °F 96.0 °F 72.0 °F 57% 29.92 in - South 9.2 mph - N/A   Unknown
4:52 PM 88.0 °F 94.7 °F 72.0 °F 59% 29.90 in - South 4.6 mph - N/A   Unknown
5:52 PM 87.1 °F 93.6 °F 72.0 °F 61% 29.89 in - South 4.6 mph - N/A   Unknown
6:52 PM 84.0 °F 89.6 °F 72.0 °F 67% 29.91 in - South 4.6 mph - N/A   Unknown
7:52 PM 81.0 °F 84.9 °F 71.1 °F 72% 29.91 in - SSE 3.5 mph - N/A   Unknown
8:52 PM 82.0 °F 86.3 °F 71.1 °F 69% 29.91 in - SSE 3.5 mph - N/A   Unknown
10:52 PM 79.0 °F - 71.1 °F 77% 29.93 in - South 4.6 mph - N/A   Unknown